Regional Weather Roundup
Issued by NWS

Home | Current Version | Previous Version | Graphics & Text | Print | Product List | Glossary On
Versions: 1 2 3 4 5 6 7 8 9 10 11 12 13 14 15 16 17 18 19 20 21 22 23 24 25 26 27 28 29 30 31 32 33 34 35 36 37 38 39 40 41 42 43 44 45 46 47 48 49 50
000
ASUS45 KTFX 222119
RWRMT
MONTANA HOURLY WEATHER ROUNDUP
NATIONAL WEATHER SERVICE GREAT FALLS MT
319 PM MDT TUE APR 22 2014

NOTE: "FAIR" INDICATES FEW OR NO CLOUDS BELOW 12000 FEET WITH NO
SIGNIFICANT WEATHER AND/OR OBSTRUCTIONS TO VISIBILITY.

* THESE STATIONS ARE NOT UNDER NWS QUALITY CONTROL. THEY DO NOT
   REPORT WEATHER SUCH AS PRECIPITATION OR FOG.

MTZ001>007-043-222200-
WEST OF THE DIVIDE
CITY           SKY/WX    TMP DP  RH WIND       PRES   REMARKS
KALISPELL      LGT RAIN  52  43  72 SW7       29.64S
MISSOULA       CLOUDY    52  37  57 N6        29.65F
BUTTE          CLOUDY    52  37  57 NW21      29.50F
MULLAN PASS    LGT SNOW  32  30  92 NW8       29.66S VSB M1/4 WCI  25
* ESSEX        N/A       49  36  61 N/A        N/A
* LINCOLN      N/A       53  40  62 NW3G14     N/A
* LOOKOUT PASS N/A       37  36  96 N6G14      N/A   WCI  32
* PLAINS APT   CLOUDY    55  37  51 CALM      29.66F
* POLSON       N/A       50  42  74 SW2        N/A
* SEELEY LAKE  N/A       49  34  56 NW8G17     N/A
* THOMP F APT  CLOUDY    60  31  33 S24G41     N/A
$$

MTZ008-052>055-222200-
SOUTHWEST MONTANA
CITY           SKY/WX    TMP DP  RH WIND       PRES   REMARKS
BOZEMAN        CLOUDY    66  36  33 SE16      29.46F
DILLON         CLOUDY    54  43  67 SW22G32   29.49R
W YELLOWSTONE  N/A       49  37  63 W3G13      N/A
* THREE FORKS  CLOUDY    72  39  30 SE9        N/A
* BOULDER HILL N/A       61  32  34 S22G28     N/A
* MONIDA PASS  N/A       50  36  59 S29G54     N/A
* RAYNOLDS PAS N/A       45  22  40 SE15       N/A
* WHITEHALL    N/A       68  35  30 E6G24      N/A
* WISE RIVER   N/A       46  37  71 NW17G30    N/A
$$

MTZ009>010-012-014-046-048-049-054-222200-
EAST SLOPES AND CENTRAL MONTANA
CITY           SKY/WX    TMP DP  RH WIND       PRES   REMARKS
CUT BANK       PTSUNNY   68  27  21 SE9       29.46F
GREAT FALLS    CLOUDY    68  34  28 E13       29.43F
HELENA         CLOUDY    55  39  55 W30G37    29.48S
MALMSTROM AFB  CLOUDY    70  32  25 E10       29.41F
* CONRAD       PTSUNNY   70  28  21 SE7        N/A
* DEARBORN     N/A       62  41  46 SW11       N/A
* EAST GLACIER N/A       52  27  38 NW16G22    N/A
* MONARCH      N/A       66  29  25 SE14       N/A
* PENDROY      N/A       66  30  26 SE9G18     N/A
* ROGERS PASS  N/A       47  39  74 NE9        N/A
* SAINT MARY   N/A       54  26  34 SW11G20    N/A
* SWEET GRASS  N/A       68  26  21 SW15G24    N/A
* WHITE SULPH  N/A       67  34  29 S12G24     N/A
$$

MTZ011-013-016-021-035-040-045-047-050-051-222200-
NORTH CENTRAL MONTANA
CITY           SKY/WX    TMP DP  RH WIND       PRES   REMARKS
HAVRE          PTCLDY    79  27  15 SE22G30   29.45F
LEWISTOWN      PTCLDY    72  28  19 S12G21    29.52F
* CHINOOK      PTSUNNY   75  32  21 E20G28    29.47F
* FORT BENTON  PTSUNNY   75  32  21 E14G22    29.42F
* MALTA APT    PTSUNNY   75  36  24 E21G26    29.54F
* CHESTER      N/A       72  26  18 SE10G16    N/A
* DENTON       N/A       74  36  25 SE20G26    N/A
* GEYSER       N/A       73  33  23 E8G16      N/A
* JUDITH GAP   N/A       68  37  32 SE17G25    N/A
* LOMA         N/A       76  31  19 SE16G25    N/A
$$

MTZ017>020-022>027-061-062-222200-
NORTHEAST MONTANA
CITY           SKY/WX    TMP DP  RH WIND       PRES   REMARKS
GLASGOW        PTSUNNY   73  30  20 SE25G35   29.59F
GLENDIVE       PTSUNNY   73  36  26 SE21G29   29.66F
JORDAN         PTCLDY    75  34  22 SE16G23   29.56F
SIDNEY         PTSUNNY   73  34  24 SE21G32   29.70F
WOLF POINT     PTSUNNY   73  30  20 SE20G29   29.64F
* BEAVER HILL  N/A       70  32  25 E31G40     N/A
* CIRCLE       N/A       72  38  29 SE16G23    N/A
* LINDSAY DVD  N/A       70  34  27 E24G30     N/A
* NAVAJO       N/A       68  28  22 SE20G31    N/A
* SACO         N/A       73  33  23 E22G30     N/A
* SCOBEY APT   PTCLDY    70  28  21 E23G36    29.70F
$$

MTZ028>042-056>058-222200-
SOUTHCENTRAL AND SOUTHEAST MONTANA
CITY           SKY/WX    TMP DP  RH WIND       PRES   REMARKS
BAKER          SUNNY     72  36  27 SE25G36   29.69F
BILLINGS       PTCLDY    72  41  33 E8        29.55F
LIVINGSTON     CLOUDY    68  36  31 E7        29.51F
MILES CITY     SUNNY     77  34  21 E12G18    29.58F
* LAUREL APT   PTCLDY    72  39  30 N/A        N/A
* ROUNDUP APT  PTCLDY    73  34  24 SE13       N/A
* HYSHAM       N/A       74  37  26 SE4G13     N/A
* LAME DEER    N/A       70  34  27 E12        N/A
* REED POINT   N/A       72  42  34 E12G18     N/A
* ROSCOE HILL  N/A       67  30  25 SE20G25    N/A
$$

REGIONAL REPORTS...DAKOTAS
CITY           SKY/WX    TMP DP  RH WIND       PRES   REMARKS
WILLISTON      CLOUDY    70  28  21 SE23G33   29.75F
DICKINSON      PTCLDY    70  28  21 SE29G38   29.74F
CROSBY         SUNNY     68  28  22 SE26G33   29.78F
TIOGA          SUNNY     66  27  23 SE24G33   29.82F
WATFORD CITY   SUNNY     72  30  21 SE26G35   29.72F
BISMARCK       PTCLDY    72  30  21 SE24G35   29.85F
GRAND FORKS    PTCLDY    61  36  39 S8        30.02F
FARGO          PTCLDY    63  30  29 VRB6      30.01F
BUFFALO SD     PTSUNNY   70  34  27 SE24G30   29.64F
RAPID CITY     CLOUDY    73  43  34 SE17G23   29.66F
$$

REGIONAL REPORTS...WYOMING/IDAHO/WASHINGTON
CITY           SKY/WX    TMP DP  RH WIND       PRES   REMARKS
GILLETTE       CLOUDY    72  39  30 S15       29.66F
SHERIDAN       PTSUNNY   72  27  19 SE8       29.61F
CODY           PTSUNNY   66  34  31 S16G44    29.58F
YELLOWSTONE LA PTSUNNY   52  28  40 VRB3      29.73F
SALMON         CLOUDY    46  41  83 NW6       29.63S
MULLAN PASS    LGT SNOW  32  30  92 NW8       29.66S VSB M1/4 WCI  25
SAND POINT     CLOUDY    46  45  96 SW7       29.70R
SPOKANE        CLOUDY    46  39  77 SW21G26   29.71S
$$

REGIONAL REPORTS...ALBERTA
CITY           SKY/WX    TMP DP  RH WIND       PRES   REMARKS
CALGARY        CLOUDY    59  27  29 SE9       29.52F
LETHBRIDGE     CLOUDY    70  28  21 SW20G29   29.45F
MEDICINE HAT   PTSUNNY   79  25  14 S12G20    29.46F
EDMONTON       PTSUNNY   68  27  21 SE16G24   29.50F
WATERTON GATE  N/A       52  32  47 SW23G31    N/A
CARDSTON       N/A       57  32  39 W17G24     N/A
MILK RIVER     N/A       70  27  20 S20G26     N/A
$$

REGIONAL REPORTS...SASKATCHEWAN
CITY           SKY/WX    TMP DP  RH WIND       PRES   REMARKS
SWIFT CURRENT  N/A       70  23  17 N/A       29.60F
MOOSE JAW      PTSUNNY   70  28  21 SE25G31   29.71F
REGINA         PTCLDY    68  34  28 SE28G37   29.77F
VAL MARIE      N/A       72  27  19 SE24G32    N/A
ASSINIBOIA     N/A       68  27  21 SE23G33    N/A
CORONACH       N/A       68  28  22 SE23G32    N/A

$$




USA.gov is the U.S. government's official web portal to all federal, state and local government web resources and services.